Flag for U.S.A. Weather past 2 weeks in Sunrise Manor, Nevada, U.S.A.

Now
105 °F

Sunny.


Feels Like: 102 °F
Forecast: 82 / 100 °F
Wind: 7 mph from West

Location: Nellis Air Force Base

Current Time: Aug 1, 2014 at 6:13:31 PM

Latest Report: Aug 1, 2014 at 4:58 PM


Visibility: 10 mi

Pressure: 29.73 "Hg

Humidity: 17%

Dew point: 52 °F

Location of Sunrise ManorLocation

Historic Weather in Sunrise Manor — Graph

°F

Sunrise Manor temperature yesterday

Maximum temperature yesterday: 107 °F (at 4:58 PM)
Minimum temperature yesterday: 82 °F (at 6:58 AM)
Average temperature yesterday: 95 °F

Past Weeks' High & Low Weather Summary

 TemperatureHumidityPressure
High110 °F (Jul 23, 3:58 PM)75% (Jul 28, 4:58 AM)30.05 "Hg (Jul 28, 4:58 AM)
Low76 °F (Jul 22, 5:58 AM)5% (Jul 23, 2:58 PM)29.61 "Hg (Jul 24, 5:58 PM)
Average94 °F23%29.82 "Hg
* Reported Jul 17 4:58 PM — Aug 1 4:58 PM, Sunrise Manor, Weather by CustomWeather, © 2014

Note: Actual official high and low records may vary slightly from our data, if they occured in-between our weather recording intervals... More about our weather records

Advertising

Sunrise Manor weather history for previous 24 hours

 ConditionsComfort  
Time TempWeatherWind HumidityBarometerVisibility
4:58 PM
Aug 1
105 °FSunny.7 mph17%29.73 "Hg10 mi
3:58 PM104 °FSunny.No wind18%29.75 "Hg10 mi
2:58 PM104 °FSunny.6 mph19%29.77 "Hg10 mi
1:58 PM102 °FSunny.8 mph21%29.80 "Hg10 mi
12:58 PM100 °FSunny.9 mph24%29.82 "Hg10 mi
11:58 AM98 °FSunny.1 mph26%29.85 "Hg10 mi
10:58 AM96 °FSunny.8 mph28%29.87 "Hg10 mi
9:58 AM94 °FSunny.8 mph29%29.87 "Hg10 mi
8:58 AM93 °FSunny.10 mph27%29.86 "Hg10 mi
7:58 AM91 °FSunny.13 mph29%29.86 "Hg10 mi
6:58 AM87 °FSunny.12 mph32%29.85 "Hg10 mi
5:58 AM86 °FClear.10 mph33%29.84 "Hg10 mi
4:58 AM87 °FClear.8 mph32%29.82 "Hg10 mi
3:58 AM89 °FPassing clouds.12 mph30%29.80 "Hg10 mi
2:58 AM89 °FPassing clouds.17 mph30%29.80 "Hg10 mi
1:58 AM91 °FPassing clouds.18 mph27%29.77 "Hg10 mi
12:58 AM92 °FClear.17 mph25%29.77 "Hg10 mi
11:58 PM
Jul 31
94 °FClear.18 mph24%29.77 "Hg10 mi
10:58 PM96 °FClear.8 mph17%29.75 "Hg10 mi
9:58 PM97 °FClear.5 mph17%29.74 "Hg10 mi
8:58 PM101 °FClear.9 mph13%29.72 "Hg10 mi
7:58 PM102 °FSunny.13 mph13%29.70 "Hg10 mi
6:58 PM105 °FSunny.12 mph11%29.69 "Hg10 mi
Weather by CustomWeather, © 2014

See weather overviewHow to use our weather pages